^^
Grace C. Lehan Memorial Weather Station Historical Data
Daily Summary for February 8, 2021 Units:  Metric    English   Both
Daily Weekly Monthly Yearly
  High: Low: Average:
Temperature: 29 °C 16.4 °C 22.9 °C
Dew Point: 21.7 °C 15.3 °C 19.2 °C
Humidity: 96% 58.9% 81%
Wind Speed: 5.3km/h 0km/h 0.8km/h
Wind Gust: 22.5km/h - -
Wind- - South
Pressure: 1012.4 hPa 1007.7 hPa -
Precipitation: 0 mm    
 
 
Tabular Data for February 8, 2021
Time Temperature Dew Point Pressure Wind Wind Speed Wind Gust Humidity Rainfall Rate (Hourly) solar
00:09 17.4 °C 15.4 °C 1012.4 hPa Calm     88% 0 mm 0 W/m2
00:14 17.3 °C 15.3 °C 1012.4 hPa Calm     88% 0 mm 0 W/m2
00:19 17.3 °C 15.4 °C 1012.4 hPa Calm     88.9% 0 mm 0 W/m2
00:24 17.2 °C 15.4 °C 1012.4 hPa Calm     89% 0 mm 0 W/m2
00:29 17.2 °C 15.3 °C 1012.4 hPa Calm     89% 0 mm 0 W/m2
00:34 17.2 °C 15.3 °C 1012.4 hPa Calm     89% 0 mm 0 W/m2
00:39 17.1 °C 15.4 °C 1012.4 hPa Calm     90% 0 mm 0 W/m2
00:44 17.1 °C 15.4 °C 1012.4 hPa Calm     90% 0 mm 0 W/m2
00:49 17.1 °C 15.4 °C 1012.4 hPa Calm     90% 0 mm 0 W/m2
00:54 17.1 °C 15.4 °C 1012.4 hPa Calm     90.4% 0 mm 0 W/m2
00:59 17.1 °C 15.5 °C 1012.4 hPa Calm     90.7% 0 mm 0 W/m2
01:04 17 °C 15.5 °C 1012.4 hPa Calm     91% 0 mm 0 W/m2
01:09 17 °C 15.5 °C 1012.4 hPa Calm     91% 0 mm 0 W/m2
01:14 16.9 °C 15.4 °C 1012.4 hPa Calm     91% 0 mm 0 W/m2
01:19 16.9 °C 15.4 °C 1012.4 hPa Calm     91% 0 mm 0 W/m2
01:24 16.9 °C 15.4 °C 1012.4 hPa Calm     91% 0 mm 0 W/m2
01:29 16.8 °C 15.3 °C 1012.4 hPa Calm     91% 0 mm 0 W/m2
01:34 16.8 °C 15.3 °C 1012.4 hPa Calm     91% 0 mm 0 W/m2
01:39 16.8 °C 15.3 °C 1012.1 hPa Calm     91% 0 mm 0 W/m2
01:44 16.8 °C 15.3 °C 1012.1 hPa Calm     91% 0 mm 0 W/m2
01:49 16.7 °C 15.3 °C 1012.1 hPa Calm     91% 0 mm 0 W/m2
01:54 16.7 °C 15.3 °C 1012.1 hPa Calm     91.6% 0 mm 0 W/m2
01:59 16.7 °C 15.4 °C 1012.1 hPa Calm     92% 0 mm 0 W/m2
02:04 16.8 °C 15.4 °C 1012.1 hPa Calm     92% 0 mm 0 W/m2
02:09 16.8 °C 15.5 °C 1011.7 hPa Calm     92% 0 mm 0 W/m2
02:14 16.8 °C 15.5 °C 1011.7 hPa Calm     92% 0 mm 0 W/m2
02:19 16.8 °C 15.5 °C 1011.7 hPa Calm     92% 0 mm 0 W/m2
02:24 16.8 °C 15.4 °C 1011.7 hPa Calm     92% 0 mm 0 W/m2
02:29 16.8 °C 15.4 °C 1011.7 hPa Calm     92% 0 mm 0 W/m2
02:34 16.8 °C 15.4 °C 1011.7 hPa Calm     92% 0 mm 0 W/m2
02:39 16.8 °C 15.4 °C 1011.7 hPa Calm     92% 0 mm 0 W/m2
02:44 16.8 °C 15.4 °C 1011.7 hPa Calm     92% 0 mm 0 W/m2
02:49 16.7 °C 15.4 °C 1011.7 hPa Calm     92% 0 mm 0 W/m2
02:54 16.7 °C 15.4 °C 1011.7 hPa Calm     92% 0 mm 0 W/m2
02:59 16.7 °C 15.4 °C 1011.7 hPa Calm     92% 0 mm 0 W/m2
03:04 16.6 °C 15.4 °C 1011.7 hPa Calm     92.5% 0 mm 0 W/m2
03:09 16.6 °C 15.5 °C 1011.7 hPa Calm     93% 0 mm 0 W/m2
03:14 16.7 °C 15.5 °C 1011.7 hPa Calm     93% 0 mm 0 W/m2
03:19 16.7 °C 15.6 °C 1011.7 hPa Calm     93% 0 mm 0 W/m2
03:24 16.7 °C 15.6 °C 1011.7 hPa Calm     93% 0 mm 0 W/m2
03:29 16.7 °C 15.6 °C 1011.7 hPa Calm     93% 0 mm 0 W/m2
03:34 16.7 °C 15.6 °C 1011.7 hPa Calm     93% 0 mm 0 W/m2
03:39 16.7 °C 15.6 °C 1011.7 hPa Calm     93% 0 mm 0 W/m2
03:44 16.8 °C 15.7 °C 1011.4 hPa Calm     93% 0 mm 0 W/m2
03:49 16.8 °C 15.7 °C 1011.4 hPa Calm     93% 0 mm 0 W/m2
03:54 16.8 °C 15.6 °C 1011.4 hPa Calm     93% 0 mm 0 W/m2
03:59 16.7 °C 15.6 °C 1011.4 hPa Calm     93% 0 mm 0 W/m2
04:00 16.7 °C 15.6 °C 1011.4 hPa Calm     93% 0 mm 0 W/m2
04:09 16.7 °C 15.6 °C 1011.4 hPa Calm     93.3% 0 mm 0 W/m2
04:14 16.6 °C 15.5 °C 1011.4 hPa Calm     93% 0 mm 0 W/m2
04:19 16.6 °C 15.4 °C 1011.1 hPa Calm     93% 0 mm 0 W/m2
04:24 16.5 °C 15.4 °C 1011.1 hPa Calm     93% 0 mm 0 W/m2
04:29 16.5 °C 15.3 °C 1011.1 hPa Calm     93% 0 mm 0 W/m2
04:34 16.5 °C 15.5 °C 1011.1 hPa Calm     93.9% 0 mm 0 W/m2
04:39 16.5 °C 15.6 °C 1011.1 hPa Calm     94% 0 mm 0 W/m2
04:44 16.5 °C 15.5 °C 1011.1 hPa Calm     94% 0 mm 0 W/m2
04:49 16.4 °C 15.5 °C 1011.1 hPa Calm     94% 0 mm 0 W/m2
04:54 16.4 °C 15.4 °C 1011.1 hPa Calm     94% 0 mm 0 W/m2
04:59 16.4 °C 15.4 °C 1011.1 hPa Calm     94% 0 mm 0 W/m2
05:04 16.4 °C 15.5 °C 1011.1 hPa Calm     94% 0 mm 0 W/m2
05:09 16.5 °C 15.5 °C 1011.1 hPa Calm     94% 0 mm 0 W/m2
05:14 16.5 °C 15.6 °C 1011.1 hPa Calm     94% 0 mm 0 W/m2
05:19 16.6 °C 15.6 °C 1011.1 hPa Calm     94% 0 mm 0 W/m2
05:24 16.6 °C 15.6 °C 1011.1 hPa Calm     94% 0 mm 0 W/m2
05:29 16.6 °C 15.6 °C 1011.1 hPa Calm     94% 0 mm 0 W/m2
05:34 16.6 °C 15.8 °C 1011.1 hPa Calm     94.7% 0 mm 0 W/m2
05:39 16.7 °C 15.9 °C 1011.1 hPa Calm     95% 0 mm 0 W/m2
05:44 16.7 °C 15.9 °C 1011.1 hPa Calm     95% 0 mm 0 W/m2
05:49 16.7 °C 15.9 °C 1011.1 hPa Calm     95% 0 mm 0 W/m2
05:54 16.8 °C 16 °C 1011.1 hPa Calm     95% 0 mm 0 W/m2
05:59 16.9 °C 16.1 °C 1011.1 hPa Calm     95% 0 mm 0 W/m2
06:04 17 °C 16.2 °C 1011.1 hPa Calm     95% 0 mm 0 W/m2
06:09 17 °C 16.2 °C 1011.1 hPa Calm     95% 0 mm 0 W/m2
06:14 17.1 °C 16.2 °C 1011.1 hPa Calm     95% 0 mm 0 W/m2
06:19 17.1 °C 16.3 °C 1011.1 hPa Calm     95% 0 mm 0 W/m2
06:24 17.1 °C 16.3 °C 1011.1 hPa Calm     95% 0 mm 0 W/m2
06:29 17.2 °C 16.3 °C 1011.1 hPa Calm     95% 0 mm 0 W/m2
06:34 17.2 °C 16.4 °C 1011.1 hPa Calm     95% 0 mm 7 W/m2
06:39 17.3 °C 16.5 °C 1011.1 hPa Calm     95% 0 mm 12 W/m2
06:44 17.4 °C 16.6 °C 1011.1 hPa Calm     95% 0 mm 12 W/m2
06:49 17.4 °C 16.7 °C 1011.4 hPa Calm     95% 0 mm 12 W/m2
06:54 17.6 °C 16.9 °C 1011.4 hPa Calm     95.9% 0 mm 19 W/m2
06:59 17.7 °C 17.1 °C 1011.4 hPa Calm     96% 0 mm 26 W/m2
07:04 17.8 °C 17.1 °C 1011.4 hPa Calm     96% 0 mm 32 W/m2
07:09 17.9 °C 17.2 °C 1011.4 hPa Calm     96% 0 mm 46 W/m2
07:14 18 °C 17.3 °C 1011.4 hPa Calm     96% 0 mm 42 W/m2
07:19 18.1 °C 17.4 °C 1011.4 hPa Calm     96% 0 mm 32 W/m2
07:24 18.2 °C 17.6 °C 1011.4 hPa Calm     96% 0 mm 33 W/m2
07:29 18.3 °C 17.6 °C 1011.4 hPa Calm     96% 0 mm 44 W/m2
07:34 18.4 °C 17.7 °C 1011.4 hPa Calm     96% 0 mm 51 W/m2
07:39 18.4 °C 17.8 °C 1011.4 hPa Calm     96% 0 mm 42 W/m2
07:44 18.6 °C 17.9 °C 1011.4 hPa Calm     96% 0 mm 46 W/m2
07:49 18.7 °C 18.1 °C 1011.4 hPa Calm     96% 0 mm 40 W/m2
07:54 18.8 °C 18.2 °C 1011.4 hPa Calm     96% 0 mm 49 W/m2
07:59 18.9 °C 18.3 °C 1011.4 hPa Calm     96% 0 mm 69 W/m2
08:04 19.1 °C 18.4 °C 1011.4 hPa Calm     96% 0 mm 62 W/m2
08:09 19.2 °C 18.5 °C 1011.4 hPa Calm     96% 0 mm 62 W/m2
08:14 19.3 °C 18.7 °C 1011.4 hPa Calm     96% 0 mm 63 W/m2
08:19 19.4 °C 18.8 °C 1011.4 hPa Calm     96% 0 mm 76 W/m2
08:24 19.7 °C 19 °C 1011.1 hPa Calm     96% 0 mm 79 W/m2
08:29 19.8 °C 19.2 °C 1011.1 hPa WSW 0.2 km/h 3.2 km/h 96% 0 mm 132 W/m2
08:34 20.1 °C 19.4 °C 1011.1 hPa Calm   3.2 km/h 96% 0 mm 255 W/m2
08:39 20.3 °C 19.7 °C 1011.1 hPa Calm     96% 0 mm 334 W/m2
08:44 20.7 °C 20.1 °C 1011.1 hPa Calm     96% 0 mm 345 W/m2
08:49 21.1 °C 20.3 °C 1011.1 hPa Calm     95.4% 0 mm 413 W/m2
08:54 21.7 °C 20.7 °C 1011.1 hPa Calm   1.6 km/h 94.1% 0 mm 432 W/m2
08:59 22.2 °C 20.9 °C 1011.1 hPa Calm   1.6 km/h 92% 0 mm 450 W/m2
09:04 22.9 °C 21 °C 1011.1 hPa Calm   1.6 km/h 89.1% 0 mm 466 W/m2
09:09 23.6 °C 21.1 °C 1011.1 hPa Calm   1.6 km/h 85.8% 0 mm 475 W/m2
09:14 24.3 °C 21.3 °C 1011.1 hPa Calm   1.6 km/h 83.3% 0 mm 494 W/m2
09:19 24.9 °C 21.3 °C 1011.1 hPa Calm   3.2 km/h 80.3% 0 mm 508 W/m2
09:24 25.5 °C 20.7 °C 1010.7 hPa SW 2.1 km/h 12.9 km/h 75.1% 0 mm 527 W/m2
09:29 25.8 °C 20.4 °C 1011.1 hPa WSW 0.5 km/h 12.9 km/h 72.2% 0 mm 543 W/m2
09:34 26 °C 20.4 °C 1011.1 hPa SSW 0.3 km/h 12.9 km/h 71.5% 0 mm 552 W/m2
09:39 26.3 °C 20.4 °C 1011.1 hPa WSW 0.8 km/h 9.7 km/h 70.2% 0 mm 570 W/m2
09:44 26.5 °C 20.5 °C 1011.1 hPa WSW 0.3 km/h 9.7 km/h 69.6% 0 mm 584 W/m2
09:49 26.8 °C 20.7 °C 1011.1 hPa SW 0.6 km/h 9.7 km/h 69.3% 0 mm 601 W/m2
09:54 27.1 °C 20.7 °C 1011.1 hPa SSW 0.8 km/h 9.7 km/h 67.9% 0 mm 610 W/m2
09:59 27.3 °C 20.7 °C 1011.1 hPa WSW 2.7 km/h 9.7 km/h 67% 0 mm 628 W/m2
10:04 27.6 °C 20.6 °C 1011.1 hPa WSW 2.3 km/h 9.7 km/h 66% 0 mm 643 W/m2
10:09 27.7 °C 20.5 °C 1010.7 hPa SW 0.3 km/h 9.7 km/h 64.8% 0 mm 649 W/m2
10:14 28 °C 20.7 °C 1010.7 hPa Calm   9.7 km/h 64.6% 0 mm 659 W/m2
10:19 28.3 °C 20.7 °C 1010.7 hPa WSW 0.5 km/h 9.7 km/h 63.5% 0 mm 666 W/m2
10:24 28.4 °C 20.6 °C 1010.7 hPa SSW 0.8 km/h 9.7 km/h 62.5% 0 mm 675 W/m2
10:29 28.4 °C 20.6 °C 1011.1 hPa SSW 1.1 km/h 9.7 km/h 62.2% 0 mm 682 W/m2
10:34 28.5 °C 20.5 °C 1011.1 hPa SSW 1 km/h 9.7 km/h 62% 0 mm 691 W/m2
10:39 28.6 °C 20.6 °C 1011.1 hPa SW 1 km/h 9.7 km/h 62.2% 0 mm 696 W/m2
10:44 28.7 °C 20.7 °C 1010.7 hPa SW 0.3 km/h 9.7 km/h 62.2% 0 mm 708 W/m2
10:49 28.9 °C 20.8 °C 1010.7 hPa SSW 2.6 km/h 11.3 km/h 61.6% 0 mm 719 W/m2
10:54 28.9 °C 20.5 °C 1010.7 hPa SW 1.9 km/h 11.3 km/h 60.4% 0 mm 728 W/m2
10:59 29 °C 20.3 °C 1010.7 hPa SSW 1 km/h 11.3 km/h 59.5% 0 mm 733 W/m2
11:04 28.9 °C 20.3 °C 1010.7 hPa WSW 0.6 km/h 11.3 km/h 59.7% 0 mm 745 W/m2
11:08 28.9 °C 20.4 °C 1010.7 hPa WSW 1.4 km/h 6.4 km/h 60.3% 0 mm 747 W/m2
11:14 28.9 °C 20.1 °C 1010.7 hPa South 2.3 km/h 8 km/h 58.9% 0 mm 761 W/m2
11:19 28.8 °C 20.4 °C 1010.4 hPa SW 2.7 km/h 9.7 km/h 60.6% 0 mm 761 W/m2
11:24 28.9 °C 20.2 °C 1010.4 hPa South 2.3 km/h 9.7 km/h 59.6% 0 mm 768 W/m2
11:29 28.7 °C 20.3 °C 1010.4 hPa SSW 1.9 km/h 11.3 km/h 60.4% 0 mm 775 W/m2
11:34 28.7 °C 20.6 °C 1010.4 hPa South 1.4 km/h 11.3 km/h 61.3% 0 mm 782 W/m2
11:39 28.7 °C 20.3 °C 1010.4 hPa South 1.4 km/h 8 km/h 60.6% 0 mm 777 W/m2
11:44 28.6 °C 20.6 °C 1010.4 hPa SW 1.3 km/h 9.7 km/h 61.7% 0 mm 789 W/m2
11:49 28.6 °C 20.6 °C 1010.4 hPa South 1.4 km/h 9.7 km/h 62% 0 mm 786 W/m2
11:54 28.4 °C 20.4 °C 1010.4 hPa South 2.7 km/h 9.7 km/h 61.8% 0 mm 675 W/m2
11:59 28.2 °C 20.4 °C 1010 hPa South 1.8 km/h 9.7 km/h 62.8% 0 mm 179 W/m2
12:00 28.2 °C 20.4 °C 1010 hPa Calm   9.7 km/h 63% 0 mm 128 W/m2
12:09 28 °C 20.3 °C 1010 hPa South 2.3 km/h 9.7 km/h 63.2% 0 mm 172 W/m2
12:14 27.9 °C 20.1 °C 1010 hPa South 3.9 km/h 11.3 km/h 62.4% 0 mm 146 W/m2
12:19 27.8 °C 20.1 °C 1009.7 hPa South 3.1 km/h 11.3 km/h 62.7% 0 mm 176 W/m2
12:24 27.8 °C 20.3 °C 1009.7 hPa SSW 1.9 km/h 11.3 km/h 63.7% 0 mm 220 W/m2
12:29 27.7 °C 19.7 °C 1009.7 hPa South 3.5 km/h 12.9 km/h 61.8% 0 mm 207 W/m2
12:34 27.5 °C 19.4 °C 1009.7 hPa South 3.7 km/h 17.7 km/h 61.6% 0 mm 264 W/m2
12:39 27.5 °C 19.6 °C 1009.7 hPa South 4.2 km/h 17.7 km/h 62.2% 0 mm 135 W/m2
12:44 27.6 °C 19.6 °C 1009.7 hPa South 5.1 km/h 19.3 km/h 61.8% 0 mm 123 W/m2
12:49 27.6 °C 19.9 °C 1009.7 hPa SSW 1.6 km/h 19.3 km/h 63% 0 mm 116 W/m2
12:54 27.7 °C 20 °C 1009.7 hPa SSW 2.3 km/h 19.3 km/h 62.8% 0 mm 441 W/m2
12:59 27.8 °C 19.8 °C 1009.7 hPa SSW 1.8 km/h 19.3 km/h 61.8% 0 mm 327 W/m2
13:04 27.8 °C 19.9 °C 1009.4 hPa SSW 2.3 km/h 19.3 km/h 62% 0 mm 724 W/m2
13:09 27.8 °C 19.5 °C 1009.4 hPa South 3.9 km/h 19.3 km/h 60.7% 0 mm 283 W/m2
13:14 27.7 °C 19.5 °C 1009.4 hPa South 3.7 km/h 19.3 km/h 61% 0 mm 229 W/m2
13:19 27.6 °C 19.4 °C 1009.4 hPa South 2.1 km/h 19.3 km/h 61% 0 mm 274 W/m2
13:24 27.6 °C 19.6 °C 1009.4 hPa South 1.4 km/h 19.3 km/h 61.9% 0 mm 262 W/m2
13:29 27.6 °C 19.7 °C 1009.4 hPa SW 1.3 km/h 19.3 km/h 61.9% 0 mm 227 W/m2
13:34 27.7 °C 19.6 °C 1009.4 hPa SSW 0.6 km/h 19.3 km/h 61.5% 0 mm 251 W/m2
13:39 27.8 °C 19.8 °C 1009.4 hPa South 2.1 km/h 14.5 km/h 61.8% 0 mm 239 W/m2
13:44 28 °C 19.7 °C 1009.4 hPa South 1.4 km/h 14.5 km/h 60.9% 0 mm 176 W/m2
13:49 28.1 °C 20.1 °C 1009.4 hPa SSW 0.5 km/h 14.5 km/h 62% 0 mm 155 W/m2
13:54 28.2 °C 19.9 °C 1009.4 hPa South 2.7 km/h 14.5 km/h 61.1% 0 mm 214 W/m2
13:59 28.1 °C 19.8 °C 1009.4 hPa South 2.4 km/h 14.5 km/h 61% 0 mm 206 W/m2
14:04 28 °C 20 °C 1009.4 hPa SSE 1.8 km/h 14.5 km/h 61.7% 0 mm 230 W/m2
14:09 27.9 °C 20.1 °C 1009 hPa SSE 1.1 km/h 9.7 km/h 62.3% 0 mm 267 W/m2
14:14 27.9 °C 19.9 °C 1009 hPa South 2.4 km/h 14.5 km/h 61.8% 0 mm 167 W/m2
14:19 27.8 °C 19.8 °C 1009 hPa South 2.6 km/h 14.5 km/h 61.8% 0 mm 227 W/m2
14:24 27.8 °C 19.8 °C 1009 hPa South 3.4 km/h 16.1 km/h 61.9% 0 mm 847 W/m2
14:29 27.7 °C 19.7 °C 1009 hPa South 2.1 km/h 16.1 km/h 61.4% 0 mm 174 W/m2
14:34 27.7 °C 19.8 °C 1009 hPa South 1.6 km/h 16.1 km/h 62.2% 0 mm 195 W/m2
14:39 27.6 °C 19.8 °C 1009 hPa South 2.4 km/h 17.7 km/h 62.4% 0 mm 232 W/m2
14:44 27.5 °C 19.9 °C 1009 hPa SSW 2.7 km/h 17.7 km/h 63.3% 0 mm 225 W/m2
14:49 27.4 °C 20.1 °C 1009 hPa South 1.6 km/h 17.7 km/h 64.4% 0 mm 258 W/m2
14:54 27.4 °C 19.7 °C 1008.7 hPa SSW 3.9 km/h 17.7 km/h 62.7% 0 mm 747 W/m2
14:59 27.4 °C 19.8 °C 1008.7 hPa SSW 1.6 km/h 17.7 km/h 63.2% 0 mm 754 W/m2
15:04 27.7 °C 20 °C 1008.7 hPa South 1.8 km/h 17.7 km/h 63% 0 mm 689 W/m2
15:09 27.8 °C 20.2 °C 1008.4 hPa South 2.9 km/h 14.5 km/h 63% 0 mm 686 W/m2
15:14 27.8 °C 20.4 °C 1008.4 hPa SSW 3.9 km/h 20.9 km/h 63.9% 0 mm 684 W/m2
15:19 27.9 °C 20.3 °C 1008.4 hPa South 3.2 km/h 20.9 km/h 63.5% 0 mm 687 W/m2
15:24 27.9 °C 20.4 °C 1008.4 hPa South 5.3 km/h 22.5 km/h 63.5% 0 mm 647 W/m2
15:29 27.9 °C 20.6 °C 1008 hPa SSW 1.6 km/h 22.5 km/h 64.5% 0 mm 650 W/m2
15:34 28.1 °C 20.9 °C 1008 hPa SSW 1.3 km/h 22.5 km/h 65.4% 0 mm 621 W/m2
15:39 28.1 °C 20.7 °C 1008 hPa South 2.1 km/h 11.3 km/h 64% 0 mm 694 W/m2
15:44 28.1 °C 20.6 °C 1008 hPa South 3.2 km/h 19.3 km/h 63.8% 0 mm 622 W/m2
15:49 27.9 °C 20.3 °C 1008 hPa South 3.9 km/h 19.3 km/h 63.3% 0 mm 346 W/m2
15:54 27.8 °C 20.7 °C 1008 hPa SSW 1 km/h 19.3 km/h 65.5% 0 mm 624 W/m2
15:59 27.8 °C 20.9 °C 1008 hPa South 2.9 km/h 19.3 km/h 66.2% 0 mm 599 W/m2
16:00 27.8 °C 20.8 °C 1008 hPa South 1.6 km/h 19.3 km/h 66% 0 mm 132 W/m2
16:09 27.6 °C 20.7 °C 1007.7 hPa South 2.9 km/h 11.3 km/h 66.5% 0 mm 158 W/m2
16:14 27.4 °C 21 °C 1007.7 hPa South 0.8 km/h 12.9 km/h 68.1% 0 mm 135 W/m2
16:19 27.2 °C 21.1 °C 1007.7 hPa South 0.6 km/h 12.9 km/h 68.9% 0 mm 128 W/m2
16:24 27.1 °C 21.1 °C 1007.7 hPa South 1.6 km/h 12.9 km/h 69.9% 0 mm 121 W/m2
16:29 26.9 °C 21.1 °C 1007.7 hPa SSW 1.3 km/h 12.9 km/h 70.2% 0 mm 121 W/m2
16:34 26.8 °C 21.1 °C 1007.7 hPa Calm   12.9 km/h 70.7% 0 mm 107 W/m2
16:39 26.8 °C 21.2 °C 1007.7 hPa SSW 0.6 km/h 6.4 km/h 71.3% 0 mm 93 W/m2
16:44 26.7 °C 21.1 °C 1008 hPa SSW 3.4 km/h 16.1 km/h 71.3% 0 mm 83 W/m2
16:49 26.6 °C 21.1 °C 1008 hPa South 1.4 km/h 16.1 km/h 71.8% 0 mm 90 W/m2
16:54 26.4 °C 21.2 °C 1008 hPa South 0.5 km/h 16.1 km/h 72.9% 0 mm 69 W/m2
16:59 26.4 °C 21.3 °C 1008 hPa South 3.2 km/h 17.7 km/h 73.5% 0 mm 123 W/m2
17:04 26.4 °C 21.2 °C 1008 hPa South 2.9 km/h 17.7 km/h 73.2% 0 mm 104 W/m2
17:09 26.3 °C 21.2 °C 1008 hPa South 2.6 km/h 17.7 km/h 73.7% 0 mm 111 W/m2
17:14 26.3 °C 21.3 °C 1008 hPa South 3.9 km/h 19.3 km/h 74% 0 mm 98 W/m2
17:19 26.2 °C 21.2 °C 1008 hPa SSW 1.9 km/h 19.3 km/h 74% 0 mm 84 W/m2
17:24 26.2 °C 21.2 °C 1008 hPa South 2.6 km/h 19.3 km/h 74.2% 0 mm 69 W/m2
17:29 26.1 °C 21.3 °C 1008 hPa South 2.9 km/h 19.3 km/h 75% 0 mm 70 W/m2
17:34 26.1 °C 21.3 °C 1008 hPa South 1.8 km/h 19.3 km/h 75.2% 0 mm 97 W/m2
17:39 26.1 °C 21.5 °C 1008.4 hPa SSW 1.8 km/h 14.5 km/h 76% 0 mm 76 W/m2
17:44 26.1 °C 21.6 °C 1008.4 hPa South 1 km/h 14.5 km/h 76.4% 0 mm 72 W/m2
17:49 26 °C 21.6 °C 1008.4 hPa South 1.3 km/h 14.5 km/h 76.5% 0 mm 46 W/m2
17:54 25.9 °C 21.6 °C 1008.4 hPa South 3.1 km/h 14.5 km/h 77% 0 mm 44 W/m2
17:59 25.8 °C 21.5 °C 1008.4 hPa South 1.9 km/h 14.5 km/h 77% 0 mm 44 W/m2
18:04 25.7 °C 21.5 °C 1008.4 hPa South 1.8 km/h 14.5 km/h 77.6% 0 mm 30 W/m2
18:09 25.6 °C 21.5 °C 1008.4 hPa South 3.1 km/h 14.5 km/h 78% 0 mm 32 W/m2
18:14 25.5 °C 21.4 °C 1008.4 hPa South 1 km/h 14.5 km/h 78.2% 0 mm 30 W/m2
18:19 25.4 °C 21.6 °C 1008.4 hPa South 1.4 km/h 14.5 km/h 79% 0 mm 30 W/m2
18:24 25.4 °C 21.4 °C 1008.4 hPa South 0.3 km/h 14.5 km/h 79% 0 mm 21 W/m2
18:29 25.3 °C 21.6 °C 1008.4 hPa SSE 1.4 km/h 14.5 km/h 79.6% 0 mm 23 W/m2
18:34 25.3 °C 21.4 °C 1008.4 hPa SSW 1.9 km/h 14.5 km/h 79.6% 0 mm 28 W/m2
18:39 25.2 °C 21.5 °C 1008.4 hPa South 0.8 km/h 14.5 km/h 79.9% 0 mm 26 W/m2
18:44 25.2 °C 21.4 °C 1008.4 hPa South 1.1 km/h 14.5 km/h 80% 0 mm 19 W/m2
18:49 25.1 °C 21.4 °C 1008.4 hPa SSW 0.5 km/h 14.5 km/h 80% 0 mm 18 W/m2
18:54 25 °C 21.3 °C 1008.4 hPa South 1.4 km/h 14.5 km/h 80.1% 0 mm 12 W/m2
18:59 24.9 °C 21.4 °C 1008 hPa South 1.8 km/h 16.1 km/h 81% 0 mm 5 W/m2
19:04 24.8 °C 21.4 °C 1008 hPa South 0.6 km/h 16.1 km/h 81% 0 mm 0 W/m2
19:09 24.8 °C 21.4 °C 1007.7 hPa South 1.6 km/h 14.5 km/h 81.4% 0 mm 0 W/m2
19:14 24.7 °C 21.4 °C 1007.7 hPa South 1.9 km/h 14.5 km/h 82% 0 mm 0 W/m2
19:19 24.6 °C 21.3 °C 1007.7 hPa South 0.5 km/h 14.5 km/h 82% 0 mm 0 W/m2
19:24 24.6 °C 21.3 °C 1007.7 hPa South 0.8 km/h 14.5 km/h 82% 0 mm 0 W/m2
19:29 24.5 °C 21.2 °C 1007.7 hPa South 0.3 km/h 14.5 km/h 82% 0 mm 0 W/m2
19:34 24.4 °C 21.3 °C 1007.7 hPa South 0.2 km/h 14.5 km/h 82.4% 0 mm 0 W/m2
19:39 24.4 °C 21.3 °C 1007.7 hPa SE 0.2 km/h 3.2 km/h 83% 0 mm 0 W/m2
19:44 24.3 °C 21.3 °C 1007.7 hPa SSE 0.8 km/h 4.8 km/h 83% 0 mm 0 W/m2
19:49 24.3 °C 21.3 °C 1007.7 hPa South 0.6 km/h 4.8 km/h 83.2% 0 mm 0 W/m2
19:54 24.3 °C 21.4 °C 1007.7 hPa SSE 0.3 km/h 4.8 km/h 84% 0 mm 0 W/m2
19:59 24.3 °C 21.4 °C 1007.7 hPa SE 0.3 km/h 4.8 km/h 84% 0 mm 0 W/m2
20:00 24.3 °C 21.4 °C 1007.7 hPa Calm   4.8 km/h 84% 0 mm 0 W/m2
20:09 24.3 °C 21.4 °C 1007.7 hPa South 0.6 km/h 6.4 km/h 84% 0 mm 0 W/m2
20:14 24.3 °C 21.4 °C 1007.7 hPa SSE 0.5 km/h 6.4 km/h 84% 0 mm 0 W/m2
20:19 24.3 °C 21.4 °C 1007.7 hPa SE 0.6 km/h 6.4 km/h 84% 0 mm 0 W/m2
20:24 24.3 °C 21.4 °C 1008 hPa South 1.4 km/h 8 km/h 84% 0 mm 0 W/m2
20:29 24.3 °C 21.5 °C 1008 hPa South 1 km/h 14.5 km/h 84.3% 0 mm 0 W/m2
20:34 24.3 °C 21.6 °C 1007.7 hPa SSE 1.8 km/h 14.5 km/h 84.8% 0 mm 0 W/m2
20:39 24.3 °C 21.6 °C 1007.7 hPa South 0.6 km/h 9.7 km/h 84.8% 0 mm 0 W/m2
20:44 24.3 °C 21.6 °C 1007.7 hPa South 0.3 km/h 9.7 km/h 85% 0 mm 0 W/m2
20:49 24.3 °C 21.6 °C 1007.7 hPa South 0.5 km/h 9.7 km/h 85% 0 mm 0 W/m2
20:54 24.3 °C 21.6 °C 1008 hPa South 0.2 km/h 9.7 km/h 85% 0 mm 0 W/m2
20:59 24.3 °C 21.6 °C 1008 hPa South 0.3 km/h 9.7 km/h 85% 0 mm 0 W/m2
21:04 24.3 °C 21.6 °C 1008 hPa South 0.2 km/h 9.7 km/h 85% 0 mm 0 W/m2
21:09 24.3 °C 21.7 °C 1008 hPa SSW 0.5 km/h 6.4 km/h 85% 0 mm 0 W/m2
21:14 24.3 °C 21.7 °C 1008.4 hPa South 0.6 km/h 6.4 km/h 85% 0 mm 0 W/m2
21:19 24.3 °C 21.7 °C 1008.4 hPa South 0.2 km/h 6.4 km/h 85% 0 mm 0 W/m2
21:24 24.3 °C 21.7 °C 1008.4 hPa South 0.6 km/h 6.4 km/h 85% 0 mm 0 W/m2
21:29 24.3 °C 21.6 °C 1008.4 hPa SE 0.6 km/h 6.4 km/h 85% 0 mm 0 W/m2
21:34 24.2 °C 21.6 °C 1008.4 hPa Calm   6.4 km/h 85% 0 mm 0 W/m2
21:39 24.2 °C 21.6 °C 1008.4 hPa SSE 0.2 km/h 6.4 km/h 85% 0 mm 0 W/m2
21:44 24.2 °C 21.5 °C 1008.4 hPa SSE 0.6 km/h 6.4 km/h 85% 0 mm 0 W/m2
21:49 24.2 °C 21.5 °C 1008.4 hPa SSW 0.5 km/h 9.7 km/h 85% 0 mm 0 W/m2
21:54 24.1 °C 21.6 °C 1008.4 hPa South 0.5 km/h 9.7 km/h 85.9% 0 mm 0 W/m2
21:59 24.1 °C 21.6 °C 1008.4 hPa South 0.3 km/h 9.7 km/h 86% 0 mm 0 W/m2
22:04 24.1 °C 21.6 °C 1008.4 hPa Calm   9.7 km/h 86% 0 mm 0 W/m2
22:09 24.1 °C 21.6 °C 1008.4 hPa Calm   1.6 km/h 86% 0 mm 0 W/m2
22:14 24.1 °C 21.6 °C 1008.4 hPa SW 0.3 km/h 4.8 km/h 86% 0 mm 0 W/m2
22:19 24 °C 21.6 °C 1008 hPa South 0.6 km/h 9.7 km/h 86% 0 mm 0 W/m2
22:24 24 °C 21.5 °C 1008 hPa South 0.2 km/h 9.7 km/h 86% 0 mm 0 W/m2
22:29 23.9 °C 21.5 °C 1008 hPa Calm   9.7 km/h 86.3% 0 mm 0 W/m2
22:34 23.9 °C 21.6 °C 1008 hPa Calm   9.7 km/h 87% 0 mm 0 W/m2
22:39 23.9 °C 21.6 °C 1008 hPa Calm     87% 0 mm 0 W/m2
22:44 23.8 °C 21.6 °C 1008.4 hPa Calm     87% 0 mm 0 W/m2
22:49 23.8 °C 21.6 °C 1008.4 hPa Calm     87.3% 0 mm 0 W/m2
22:54 23.8 °C 21.7 °C 1008 hPa Calm     88% 0 mm 0 W/m2
22:59 23.8 °C 21.7 °C 1008 hPa Calm     88% 0 mm 0 W/m2
23:04 23.8 °C 21.7 °C 1008 hPa Calm     88% 0 mm 0 W/m2
23:09 23.7 °C 21.6 °C 1008 hPa Calm     88% 0 mm 0 W/m2
23:14 23.7 °C 21.6 °C 1008 hPa Calm   1.6 km/h 88% 0 mm 0 W/m2
23:19 23.7 °C 21.6 °C 1008 hPa Calm   1.6 km/h 88% 0 mm 0 W/m2
23:24 23.7 °C 21.6 °C 1008 hPa Calm   3.2 km/h 88% 0 mm 0 W/m2
23:29 23.7 °C 21.6 °C 1008 hPa Calm   3.2 km/h 88% 0 mm 0 W/m2
23:34 23.7 °C 21.6 °C 1008 hPa Calm   3.2 km/h 88% 0 mm 0 W/m2
23:39 23.7 °C 21.6 °C 1008 hPa Calm   1.6 km/h 88% 0 mm 0 W/m2
23:44 23.6 °C 21.6 °C 1007.7 hPa Calm   1.6 km/h 88.2% 0 mm 0 W/m2
23:49 23.6 °C 21.6 °C 1007.7 hPa Calm   1.6 km/h 88.7% 0 mm 0 W/m2
23:54 23.6 °C 21.6 °C 1007.7 hPa Calm   3.2 km/h 89% 0 mm 0 W/m2
23:59 23.5 °C 21.6 °C 1008 hPa Calm   3.2 km/h 89% 0 mm 0 W/m2
Hartford County Weather
Compliments of Weather Underground - 4 mb